{"data":{"norad_id":47856,"epoch":"2026-09-20T21:21:07.172640Z","epoch_age_seconds":51229,"freshness":"FRESH","line1":"1 47856U 21020C   26263.88966635 -.00000002  00000+0  13471-3 0  9996","line2":"2 47856  63.4071  12.8366 0182920   0.8946 359.2372 13.45452817271289","mean_motion":13.45452817,"eccentricity":0.018292,"inclination_deg":63.4071,"raan_deg":12.8366,"arg_perigee_deg":0.8946,"mean_anomaly_deg":359.2372,"bstar":0.00013471,"rev_number":27128,"period_min":107.02716452078,"perigee_km":952.44613225407,"apogee_km":1225.6251766444,"semimajor_km":7467.1726544493,"source":"CELESTRAK","updated_at":"2026-09-21T09:00:07.608727Z"}}